TimeCST,TemperatureF,Dew PointF,Humidity,Sea Level PressureIn,VisibilityMPH,Wind Direction,Wind SpeedMPH,Gust SpeedMPH,PrecipitationIn,Events,Conditions,WindDirDegrees,DateUTC
12:53 AM,69.1,64.9,87,29.96,10.0,South,4.6,-,N/A,,Clear,190,2012-11-26 06:53:00
1:53 AM,66.9,64.9,93,29.95,9.0,Calm,Calm,-,N/A,,Clear,0,2012-11-26 07:53:00
2:23 AM,64.4,62.6,94,29.94,2.0,Calm,Calm,-,N/A,,Clear,0,2012-11-26 08:23:00
2:26 AM,64.4,62.6,94,29.94,1.0,Calm,Calm,-,N/A,,Clear,0,2012-11-26 08:26:00
2:41 AM,64.4,62.6,94,29.94,2.0,Calm,Calm,-,N/A,,Clear,0,2012-11-26 08:41:00
2:44 AM,64.4,62.6,94,29.94,3.0,SSE,3.5,-,N/A,,Clear,160,2012-11-26 08:44:00
2:53 AM,64.0,63.0,96,29.94,3.0,Calm,Calm,-,N/A,,Clear,0,2012-11-26 08:53:00
3:19 AM,64.4,62.6,94,29.94,1.8,Calm,Calm,-,N/A,,Clear,0,2012-11-26 09:19:00
3:22 AM,62.6,62.6,100,29.94,0.8,Calm,Calm,-,N/A,,Mist,0,2012-11-26 09:22:00
3:53 AM,61.0,60.1,97,29.95,0.2,Calm,Calm,-,N/A,Fog,Fog,0,2012-11-26 09:53:00
4:01 AM,62.6,60.8,94,29.94,0.2,Calm,Calm,-,N/A,Fog,Fog,0,2012-11-26 10:01:00
4:14 AM,62.6,60.8,94,29.94,0.2,Calm,Calm,-,N/A,Fog,Fog,0,2012-11-26 10:14:00
4:53 AM,62.1,62.1,100,29.95,0.2,Calm,Calm,-,N/A,Fog,Fog,0,2012-11-26 10:53:00
5:05 AM,64.4,62.6,94,29.94,0.2,SE,3.5,-,N/A,Fog,Fog,130,2012-11-26 11:05:00
5:35 AM,64.4,64.4,100,29.95,0.5,SE,3.5,-,N/A,Fog,Fog,140,2012-11-26 11:35:00
5:53 AM,63.0,63.0,100,29.97,0.2,Calm,Calm,-,N/A,Fog,Fog,0,2012-11-26 11:53:00
6:12 AM,62.6,62.6,100,29.97,0.2,Calm,Calm,-,N/A,Fog,Fog,0,2012-11-26 12:12:00
6:32 AM,62.6,62.6,100,29.97,0.2,Calm,Calm,-,N/A,Fog,Fog,0,2012-11-26 12:32:00
6:53 AM,61.0,60.1,97,29.99,0.2,Calm,Calm,-,N/A,Fog,Fog,0,2012-11-26 12:53:00
7:36 AM,64.4,62.6,94,30.00,0.2,Calm,Calm,-,N/A,Fog,Fog,0,2012-11-26 13:36:00
7:53 AM,64.9,64.9,100,30.00,0.5,Calm,Calm,-,N/A,Fog,Fog,0,2012-11-26 13:53:00
8:01 AM,66.2,66.2,100,30.00,1.2,Calm,Calm,-,N/A,,Clear,0,2012-11-26 14:01:00
8:08 AM,68.0,66.2,94,29.99,2.5,Calm,Calm,-,N/A,,Clear,0,2012-11-26 14:08:00
8:20 AM,69.8,68.0,94,30.00,4.0,Calm,Calm,-,N/A,,Clear,0,2012-11-26 14:20:00
8:53 AM,71.1,69.1,93,30.01,6.0,ESE,4.6,-,N/A,,Clear,120,2012-11-26 14:53:00
9:53 AM,75.9,69.1,79,30.03,10.0,South,8.1,-,N/A,,Clear,170,2012-11-26 15:53:00
10:53 AM,77.0,69.1,76,30.01,10.0,South,9.2,17.3,N/A,,Clear,170,2012-11-26 16:53:00
11:53 AM,80.1,69.1,69,30.00,10.0,SSE,11.5,-,N/A,,Scattered Clouds,160,2012-11-26 17:53:00
12:53 PM,79.0,69.1,72,29.98,10.0,South,10.4,17.3,N/A,,Partly Cloudy,170,2012-11-26 18:53:00
1:53 PM,79.0,69.1,72,29.96,10.0,SSE,9.2,-,N/A,,Clear,160,2012-11-26 19:53:00
2:53 PM,77.0,69.1,76,29.95,10.0,SSE,6.9,17.3,N/A,,Clear,160,2012-11-26 20:53:00
3:53 PM,75.9,68.0,76,29.95,10.0,SSE,8.1,-,N/A,,Clear,160,2012-11-26 21:53:00
4:53 PM,75.0,68.0,79,29.97,10.0,SSE,6.9,-,N/A,,Clear,160,2012-11-26 22:53:00
5:53 PM,73.0,68.0,84,29.99,10.0,South,6.9,-,N/A,,Clear,170,2012-11-26 23:53:00
6:53 PM,73.0,68.0,84,30.01,10.0,South,5.8,-,N/A,,Mostly Cloudy,190,2012-11-27 00:53:00
7:53 PM,73.0,68.0,84,30.02,10.0,South,5.8,-,N/A,,Mostly Cloudy,180,2012-11-27 01:53:00
8:53 PM,73.0,68.0,84,30.05,10.0,Variable,3.5,-,N/A,,Clear,0,2012-11-27 02:53:00
9:53 PM,73.0,68.0,84,30.08,10.0,SW,4.6,-,N/A,,Clear,220,2012-11-27 03:53:00
10:53 PM,72.0,68.0,87,30.08,10.0,SW,3.5,-,N/A,,Scattered Clouds,220,2012-11-27 04:53:00
11:53 PM,71.1,68.0,90,30.10,9.0,Calm,Calm,-,0.00,,Mostly Cloudy,0,2012-11-27 05:53:00